This demonstration page uses our WeatherBlox Daily Observations layout. Learn more.

Left ArrowRight Arrow

Hourly Observations for March 25, 2015

Temp ( °F °C ) Dew Point ( °F °C ) Humidity (%) Winds ( mph kmh ) Pressure ( in mb ) Visibility ( mi km ) Precip ( " mm )
12:51 am 00:51 Clear 54 12.2 21 -6.1 28 28 NW 10 17 29.85 1011 10 16 0.00 0.00
1:51 am 01:51 Clear 51 10.6 22 -5.6 32 32 E 5 7 29.86 1011 10 16 0.00 0.00
2:51 am 02:51 Clear 49 9.4 22 -5.6 35 35 Calm 29.85 1011 10 16 0.00 0.00
3:51 am 03:51 Clear 47 8.3 24 -4.4 41 41 Calm 29.85 1011 10 16 0.00 0.00
4:51 am 04:51 Clear 47 8.3 24 -4.4 41 41 Calm 29.88 1012 10 16 0.00 0.00
7:51 am 07:51 Sunny 53 11.7 26 -3.3 35 35 ENE 3 6 29.95 1014 10 16 0.00 0.00
8:51 am 08:51 Sunny 58 14.4 26 -3.3 29 29 S 3 6 29.96 1014 10 16 0.00 0.00
9:51 am 09:51 Sunny 63 17.2 25 -3.9 24 24 WNW 3 6 29.96 1015 10 16 0.00 0.00
10:51 am 10:51 Sunny 71 21.7 27 -2.8 19 19 WNW 9 15 29.94 1014 10 16 0.00 0.00
11:51 am 11:51 Sunny 77 25 25 -3.9 14 14 W 16 26 29.91 1013 10 16 0.00 0.00
12:51 pm 12:51 Sunny 78 25.6 25 -3.9 14 14 WNW 20 31 29.90 1013 10 16 0.00 0.00
1:51 pm 13:51 Sunny 80 26.7 25 -3.9 13 13 W 15 24 29.87 1012 10 16 0.00 0.00
2:51 pm 14:51 Sunny 80 26.7 25 -3.9 13 13 W 15 24 29.85 1011 10 16 0.00 0.00
3:51 pm 15:51 Sunny 80 26.7 26 -3.3 14 14 W 22 35 29.84 1011 10 16 0.00 0.00
4:51 pm 16:51 Sunny 79 26.1 25 -3.9 14 14 WNW 17 28 29.84 1011 10 16 0.00 0.00
5:51 pm 17:51 Sunny 77 25 25 -3.9 14 14 WNW 18 30 29.84 1011 10 16 0.00 0.00
6:51 pm 18:51 Clear 73 22.8 26 -3.3 17 17 WNW 14 22 29.87 1012 10 16 0.00 0.00
7:51 pm 19:51 Clear 69 20.6 28 -2.2 22 22 NNW 15 24 29.90 1013 10 16 0.00 0.00
8:51 pm 20:51 Clear 68 20 28 -2.2 22 22 NW 17 28 29.93 1014 10 16 0.00 0.00
9:51 pm 21:51 Clear 64 17.8 29 -1.7 27 27 NW 16 26 29.94 1014 10 16 0.00 0.00
10:51 pm 22:51 Clear 63 17.2 28 -2.2 27 27 N 7 11 29.96 1014 10 16 0.00 0.00
11:51 pm 23:51 Clear 59 15 28 -2.2 31 31 NNW 8 13 29.96 1014 10 16 0.00 0.00

Powered by AerisWeather